Weather History for GMMZ - January, 2013

Change the Weather History Date:

Sunday, January 20, 2013

  Actual Average Record
Temperature  
Mean Temperature 58 °F -  
Max Temperature 69 °F 65 °F - ()
Min Temperature 46 °F 38 °F - ()
Degree Days  
Heating Degree Days 8    
Growing Degree Days 8 (Base 50)    
Moisture  
Dew Point 22 °F    
Average Humidity 26    
Maximum Humidity 43    
Minimum Humidity 5    
Precipitation  
Precipitation 0.00 in 0.02 in - ()
Sea Level Pressure  
Sea Level Pressure 29.85 in    
Wind  
Wind Speed 21 mph ()    
Max Wind Speed 43 mph    
Max Gust Speed 54 mph    
Visibility 6.3 miles    
Events Fog    
T = Trace of Precipitation, MM = Missing Value Source: Averaged Metar Reports

Daily Weather History Graph

Daily Weather History Graph

Search for Another Location

Airport or City:

Trip Planner

Search our weather history database for the weather conditions in past years. The results will help you decide how hot, cold, wet, or windy it might be!

Date:

Astronomy

Jan. 20, 2013 Rise Set
Actual Time 7:25 AM WET 5:52 PM WET
Civil Twilight 6:59 AM WET 6:18 PM WET
Nautical Twilight 6:29 AM WET 6:48 PM WET
Astronomical Twilight 6:00 AM WET 7:16 PM WET
Moon 12:43 PM WET (1/20) 1:47 AM WET (1/20)
Length of Visible Light 11h 19m
Length of Day
10h 27m
Waxing Gibbous, 64% of the Moon is Illuminated
Jan 20
Waxing Gibbous
Jan 27
Full
Feb 3
Last Quarter
Feb 10
New
Feb 17
First Quarter

Hourly Weather History & Observations

Time (WET) Temp. Windchill Dew Point Humidity Pressure Visibility Wind Dir Wind Speed Gust Speed Precip Events Conditions
12:00 AM 50 °F - 26 °F 27%  in 4 mi West 42.6 mph - -   Partly Cloudy
12:00 AM 50.0 °F - 26.6 °F 40% 29.71 in 3.7 mi West 41.4 mph 54.1 mph N/A   Scattered Clouds
1:00 AM 48.2 °F - 26.6 °F 43% 29.71 in 3.7 mi West 38.0 mph 49.5 mph N/A   Scattered Clouds
2:00 AM 50.0 °F - 24.8 °F 37% 29.77 in 3.7 mi West 19.6 mph - N/A   Scattered Clouds
3:00 AM 50 °F - 24 °F 23%  in 4 mi West 24.2 mph - -   Partly Cloudy
3:00 AM 50.0 °F - 24.8 °F 37% 29.74 in 3.7 mi West 23.0 mph 40.3 mph N/A   Scattered Clouds
4:00 AM 48.2 °F - 24.8 °F 40% 29.74 in 3.7 mi West 25.3 mph 36.8 mph N/A   Scattered Clouds
5:00 AM 48.2 °F - 23.0 °F 37% 29.74 in 3.7 mi WNW 20.7 mph - N/A   Scattered Clouds
6:00 AM 47 °F - 24 °F 28%  in 4 mi West 26.5 mph - -   Partly Cloudy
6:00 AM 46.4 °F 38.1 °F 24.8 °F 43% 29.77 in 3.7 mi West 24.2 mph - N/A   Scattered Clouds
7:00 AM 48.2 °F - 23.0 °F 37% 29.80 in 3.7 mi West 19.6 mph - N/A   Scattered Clouds
8:00 AM 46.4 °F 38.3 °F 23.0 °F 40% 29.83 in 6.2 mi West 23.0 mph - N/A   Partly Cloudy
9:00 AM 50 °F - 20 °F 19%  in 12 mi West 15.0 mph - -   Scattered Clouds
9:00 AM 50.0 °F - 19.4 °F 30% 29.86 in 6.2 mi West 15.0 mph - N/A Fog Fog
10:00 AM 55.4 °F - 15.8 °F 21% 29.86 in - West 24.2 mph 39.1 mph N/A   Clear
11:00 AM 59.0 °F - 10.4 °F 15% 29.89 in - WNW 17.3 mph - N/A   Clear
12:00 PM 64 °F - 10 °F 5%  in 12 mi East 3.5 mph - -   Clear
12:00 PM 64.4 °F - 10.4 °F 12% 29.89 in - East 3.5 mph - N/A   Clear
1:00 PM 68.0 °F - 14.0 °F 12% 29.83 in - West 17.3 mph - N/A   Clear
2:00 PM 69.8 °F - 14.0 °F 12% 29.83 in - West 16.1 mph - N/A   Clear
3:00 PM 69 °F - 14 °F 5%  in 12 mi West 24.2 mph - -   Clear
4:00 PM 68.0 °F - 17.6 °F 15% 29.86 in - West 9.2 mph - N/A   Clear
5:00 PM 66.2 °F - 23.0 °F 19% 29.89 in - West 23.0 mph - N/A   Clear
6:00 PM 64 °F - 26 °F 13%  in 12 mi WNW 15.0 mph - -   Clear
6:00 PM 64.4 °F - 26.6 °F 24% 29.92 in - WNW 15.0 mph 26.5 mph N/A   Clear
7:00 PM 60.8 °F - 26.6 °F 27% 29.95 in - NNW 11.5 mph - N/A   Clear
8:00 PM 57.2 °F - 26.6 °F 31% 29.98 in - WNW 6.9 mph - N/A   Clear
9:00 PM 55 °F - 29 °F 24%  in 12 mi NW 8.1 mph - -   Clear
9:00 PM 55.4 °F - 28.4 °F 36% 29.98 in - NW 8.1 mph - N/A   Clear
10:00 PM 55.4 °F - 30.2 °F 38% 30.01 in - NW 11.5 mph - N/A   Clear
11:00 PM 57.2 °F - 26.6 °F 31% 30.01 in - WNW 4.6 mph - N/A   Clear